Skip Page Navigation
NASA JPL Caltech
NASA Logo - Jet Propulsion Laboratory + View the NASA Portal
+ Center for Near-Earth Object Studies
JPL Home Earth Solar System Stars & Galaxies Technology
JPL Solar System Dynamics
BODIES ORBITS EPHEMERIDES TOOLS PHYSICAL DATA DISCOVERY FAQ SITE MAP
JPL Small-Body Database Browser
Search: [ help ]  
312783 (2010 VX52)
Classification: Main-belt Asteroid          SPK-ID: 2312783
Ephemeris | Orbit Diagram | Orbital Elements | Mission Design | Physical Parameters | Discovery Circumstances | Close-Approach Data ]

[ hide orbit diagram ]

For accurate long-term ephemerides, please instead use our Horizons system.This orbit viewer was implemented using two-body methods, and hence should not be used for determining accurate long-term trajectories (over several years or decades) or planetary encounter circumstances.


Orbital Elements at Epoch 2459000.5 (2020-May-31.0) TDB
Reference: JPL 15 (heliocentric ecliptic J2000)
 Element Value Uncertainty (1-sigma)   Units 
e .1632054313103213 4.4693e-08  
a 3.106472256589505 2.7657e-08 au
q 2.599479112099268 1.4114e-07 au
i 2.782266644052099 4.811e-06 deg
node 123.1557984319155 9.1863e-05 deg
peri 183.5213470214646 9.4208e-05 deg
M 353.1164913013215 1.7189e-05 deg
tp 2459038.739042643285
(2020-Jul-08.23904264)
9.5417e-05 TDB
period 1999.860239041395
5.48
2.6707e-05
7.312e-08
d
yr
n .1800125793653265 2.404e-09 deg/d
Q 3.613465401079742 3.2171e-08 au
  Orbit Determination Parameters
   # obs. used (total)      224  
   data-arc span      6383 days (17.48 yr)  
   first obs. used      2003-04-28  
   last obs. used      2020-10-18  
   planetary ephem.      DE431  
   SB-pert. ephem.      SB431-N16  
   condition code      0  
   norm. resid. RMS      .59808  
   source      ORB  
   producer      Otto Matic  
   solution date      2020-Nov-11 18:46:04  

Additional Information
 Earth MOID = 1.58457 au 
 Jupiter MOID = 1.64068 au 
 T_jup = 3.198 
[ show covariance matrix ]

Ephemeris | Orbit Diagram | Orbital Elements | Mission Design | Physical Parameters | Discovery Circumstances | Close-Approach Data ]

Physical Parameter Table
Parameter Symbol Value Units Sigma Reference Notes
absolute magnitude H 16.43   n/a E2021B25  

312783 (2010 VX52)          Discovered 2008-Mar-13 by Spacewatch at Kitt Peak
Reference: 20120109/Numbers.arcLast Updated: 2012-01-11

[ hide close-approach data ]
Close-Approach Data   ...sorted by Date/Time (TDB)
Date/Time (TDB) Time Uncertainty
(days_HH:MM)
Body Nominal Distance (au) Minimum Distance (au) Maximum Distance (au) V-relative (km/s) V-infinity (km/s) JD (TDB) Time Uncertainty (minutes) Semi-major axis (km) Semi-minor axis (km) range-LOV angle (deg) N-sigma BP Orbit Ref. Reference Modified
1908-Jan-23 04:07 00:05 Jupiter 1.73249625397079 1.73249462423292 1.73249788371279 1.80158547269165 1.50595628460387 2417963.671295393 4.88029249579801 210.481732294424 36.7676803286481 85.2218228257906 1602185.72184119 T 15 CATAB v2.0f-lin.ifort 2020-Nov-11 18:46:05 2020-Nov-11 18:46
1918-Feb-04 00:13 00:04 Jupiter 1.71630024974872 1.71629914115024 1.7163013583471 2.129964420487 1.8840688429659 2421628.509215836 4.49023564544982 114.978615420796 14.4415687066791 75.6779198373103 1404548.507242 T 15 CATAB v2.0f-lin.ifort 2020-Nov-11 18:46:05 2020-Nov-11 18:46
1979-Jul-18 01:39 00:02 Jupiter 1.77465265164714 1.77465178964491 1.77465351364927 1.90347334628716 1.63359493517437 2444072.568709764 1.69059076582485 91.072941741159 24.0283356799379 -87.6414550775208 1636407.64731444 T 15 CATAB v2.0f-lin.ifort 2020-Nov-11 18:46:05 2020-Nov-11 18:46
1989-Jul-31 11:32 00:01 Jupiter 1.68765545179824 1.68765496573228 1.68765593786382 1.95376712130976 1.67732522052553 2447738.980813555 1.24220000746515 63.9349693125967 21.0184754404257 85.1452965174204 2048014.89937924 T 15 CATAB v2.0f-lin.ifort 2020-Nov-11 18:46:05 2020-Nov-11 18:46
2051-Jan-06 19:42 00:02 Jupiter 1.81951110216701 1.81951023566592 1.819511968668 2.02186842290828 1.77676893383804 2470178.320731997 1.55497051933313 88.4541963315464 14.2564630953795 -87.6460551520788 1623574.74664682 T 15 CATAB v2.0f-lin.ifort 2020-Nov-11 18:46:05 2020-Nov-11 18:46
2061-Jan-23 13:30 00:02 Jupiter 1.67322806166087 1.6732274304521 1.67322869286878 1.83430720338849 1.53370196368678 2473848.062396588 2.09134780698253 67.6846081383616 44.9372498139983 -87.3991183335951 1426877.06738459 T 15 CATAB v2.0f-lin.ifort 2020-Nov-11 18:46:05 2020-Nov-11 18:46
2071-Feb-11 15:54 00:02 Jupiter 1.98631574234375 1.98631431469943 1.98631716998964 3.74048879614923 3.62469289110493 2477519.162600995 2.40198070271713 127.337319791857 26.8156858816184 -66.7315247229382 2082128.70799564 T 15 CATAB v2.0f-lin.ifort 2020-Nov-11 18:46:05 2020-Nov-11 18:46
2122-Jun-29 00:25 00:05 Jupiter 1.8742448882947 1.87424280187858 1.87424697471583 2.17564553477682 1.95693096543067 2496283.517264139 4.69014468613267 218.515311876883 6.19740476419815 -83.5486306728178 1590272.95166025 T 15 CATAB v2.0f-lin.ifort 2020-Nov-11 18:46:05 2020-Nov-11 18:46
2132-Jul-19 22:30 00:05 Jupiter 1.66939564542817 1.66939504925825 1.66939624159791 1.75902736938534 1.44201658496026 2499957.437235843 5.31532666219225 130.842138975374 49.1401192506956 -53.3829432177721 1568340.48495604 T 15 CATAB v2.0f-lin.ifort 2020-Nov-11 18:46:05 2020-Nov-11 18:46
2142-Aug-04 12:46 00:06 Jupiter 1.9403750671898 1.9403724510668 1.9403776833213 3.42469167235081 3.29476292806718 2503625.031669969 5.58206119101729 253.449046582986 25.437800322184 -69.4125022328546 1960004.59098776 T 15 CATAB v2.0f-lin.ifort 2020-Nov-11 18:46:05 2020-Nov-11 18:46
2193-Dec-19 14:32 00:08 Jupiter 1.93063021962356 1.93062671976353 1.93063371949939 2.34913313398694 2.15429094254685 2522390.105668337 7.80827762807411 357.695667461311 9.40770077931026 -79.1062584505553 1618056.43795797 T 15 CATAB v2.0f-lin.ifort 2020-Nov-11 18:46:05 2020-Nov-11 18:46

Alternate Designations
 2010 VX52 = 2008 HS56 
Ephemeris | Orbit Diagram | Orbital Elements | Mission Design | Physical Parameters | Discovery Circumstances | Close-Approach Data ]
ABOUT SSD CREDITS/AWARDS PRIVACY/COPYRIGHT GLOSSARY LINKS
FirstGov 2021-Feb-27 14:20 UT
(server date/time)  
NASA Home Page
Site Manager:   Ryan S. Park
Webmaster  Alan B. Chamberlin